Total_Precipitation_Accumulation
1.38 1.42 2.13 3.33 3.82 3.13 2.60 1.97 1.25 1.26 1.07 0.74 0.61 0.70 1.12 1.68 1.98 2.25 2.29 1.87 1.21 1.01 1.12 1.75 2.38 2.17 2.08 2.12 2.23 2.35 2.39 2.38 2.30 2.14 1.96 1.84 1.62 1.48 1.43 1.35 1.22 1.10 1.11 1.05 1.06 1.10 1.18 1.29 1.32
1.23 1.98 2.92 3.93 3.50 2.74 2.61 1.94 1.43 1.08 0.71 0.51 0.51 0.58 0.84 0.94 0.89 1.37 2.38 2.14 1.22 1.00 1.05 1.32 2.18 2.22 2.16 2.22 2.26 2.17 2.10 2.03 1.88 1.87 1.85 1.72 1.64 1.52 1.41 1.29 1.19 1.06 1.04 1.03 1.06 1.01 1.05 1.15 1.20
1.57 2.50 3.44 3.56 2.67 2.47 2.47 1.79 1.27 0.69 0.46 0.51 0.57 0.56 0.75 1.01 1.11 1.66 2.17 1.62 1.13 0.98 1.08 1.50 2.24 2.28 2.22 2.16 2.14 2.17 1.99 1.92 1.73 1.63 1.68 1.62 1.58 1.43 1.35 1.28 1.14 1.04 1.05 0.98 1.03 1.04 1.05 1.19 1.22
1.89 2.71 3.00 2.64 2.23 1.79 1.49 1.35 0.93 0.75 0.60 0.39 0.47 0.62 0.61 0.95 1.23 1.52 1.38 1.06 1.02 1.05 1.14 1.52 2.07 2.19 2.21 2.14 2.09 2.01 1.83 1.72 1.63 1.53 1.58 1.58 1.53 1.41 1.31 1.22 1.17 1.09 1.08 1.02 1.04 1.12 1.17 1.26 1.23
2.19 2.71 2.61 2.13 2.05 1.57 1.16 0.98 0.76 0.91 0.82 0.51 0.45 0.66 0.80 1.11 1.23 1.30 1.19 1.02 1.04 1.12 1.11 1.42 1.92 2.03 2.12 2.03 1.84 1.81 1.79 1.66 1.52 1.47 1.45 1.45 1.47 1.41 1.33 1.36 1.33 1.20 1.15 1.12 1.14 1.25 1.21 1.22 1.23
2.38 2.42 2.29 2.10 2.15 1.77 1.44 1.05 0.84 0.93 0.76 0.51 0.49 0.71 0.97 1.24 1.38 1.32 1.17 1.18 1.18 1.17 1.09 1.22 1.67 1.87 1.93 1.87 1.79 1.79 1.75 1.62 1.45 1.35 1.33 1.35 1.37 1.29 1.22 1.27 1.26 1.23 1.21 1.20 1.16 1.20 1.11 1.12 1.24
2.62 2.43 2.05 1.73 1.99 2.25 1.70 1.08 1.00 1.01 0.92 0.68 0.50 0.81 1.06 1.28 1.36 1.14 1.09 1.32 1.48 1.44 1.27 1.19 1.32 1.53 1.68 1.84 1.85 1.90 1.86 1.78 1.63 1.44 1.37 1.36 1.28 1.12 1.08 1.19 1.25 1.27 1.23 1.26 1.28 1.29 1.19 1.16 1.31
2.14 2.20 1.81 1.77 2.04 2.32 1.66 1.09 0.89 0.88 0.91 0.60 0.55 0.90 1.24 1.20 1.22 1.17 1.10 1.24 1.36 1.40 1.36 1.28 1.32 1.40 1.47 1.62 1.86 2.09 2.17 2.21 1.93 1.58 1.48 1.34 1.16 1.07 1.13 1.18 1.28 1.39 1.39 1.42 1.47 1.46 1.35 1.36 1.40
2.04 2.37 2.20 2.27 2.23 1.86 1.25 1.17 0.89 0.69 0.75 0.71 0.59 0.63 0.84 0.79 0.83 1.00 1.08 1.08 1.05 1.01 1.08 1.15 1.21 1.35 1.40 1.45 1.56 1.93 2.14 2.27 1.92 1.45 1.47 1.32 1.08 1.03 1.14 1.20 1.57 1.67 1.68 1.70 1.71 1.65 1.59 1.51 1.43
2.15 2.23 2.00 1.71 1.50 1.34 1.19 1.08 0.86 0.89 1.05 0.96 0.79 0.69 0.72 0.73 0.81 0.90 0.89 0.90 0.85 0.83 0.78 0.80 0.82 0.92 1.10 1.21 1.48 1.79 1.84 1.95 1.63 1.39 1.38 1.31 1.37 1.32 1.09 1.22 1.63 1.82 1.87 1.74 1.68 1.71 1.58 1.33 1.11
1.65 1.74 1.37 1.11 0.87 0.90 0.94 0.87 0.70 0.84 1.09 0.86 0.74 0.73 0.77 0.82 0.81 0.86 0.84 0.72 0.65 0.61 0.60 0.60 0.64 0.66 0.84 1.18 1.48 1.73 1.84 1.92 1.88 1.82 1.59 1.55 1.47 1.27 1.12 1.11 1.21 1.33 1.38 1.30 1.41 1.44 1.26 1.17 1.05
1.49 1.29 1.06 1.00 0.76 0.77 0.77 0.72 0.78 0.73 0.72 0.57 0.52 0.59 0.77 0.88 0.82 0.76 0.77 0.74 0.66 0.63 0.63 0.56 0.50 0.56 0.71 0.90 1.13 1.46 1.66 1.74 1.71 1.65 1.36 1.42 1.44 1.27 1.23 1.32 1.39 1.35 1.32 1.47 1.54 1.52 1.43 1.26 1.05
1.44 1.21 0.93 0.72 0.67 0.65 0.67 0.71 0.73 0.66 0.54 0.50 0.48 0.58 0.77 0.88 0.86 0.74 0.67 0.65 0.66 0.74 0.83 0.77 0.62 0.60 0.69 0.79 0.83 1.00 1.20 1.31 1.56 1.63 1.28 1.17 1.21 1.31 1.33 1.23 1.40 1.47 1.48 1.53 1.61 1.53 1.43 1.44 1.27
1.26 1.02 0.83 0.69 0.67 0.62 0.67 0.68 0.67 0.75 0.58 0.54 0.56 0.66 0.77 0.85 0.86 0.73 0.63 0.55 0.54 0.60 0.71 0.75 0.75 0.76 0.79 0.77 0.71 0.70 0.77 0.95 1.11 1.15 1.01 0.97 0.99 1.15 1.36 1.28 1.27 1.36 1.55 1.64 1.66 1.59 1.63 1.61 1.42
0.86 0.90 0.94 0.82 0.76 0.72 0.77 0.94 0.70 0.64 0.56 0.55 0.58 0.66 0.65 0.66 0.68 0.60 0.54 0.44 0.44 0.51 0.56 0.64 0.70 0.76 0.82 0.90 0.87 0.72 0.73 0.84 0.89 0.88 0.89 0.93 0.93 1.09 1.33 1.27 1.18 1.18 1.34 1.54 1.75 1.81 1.79 1.57 1.48
1.02 1.01 1.27 1.00 0.91 0.82 0.94 1.07 0.64 0.59 0.58 0.55 0.57 0.69 0.65 0.54 0.49 0.46 0.48 0.46 0.44 0.49 0.50 0.55 0.54 0.63 0.75 0.89 0.97 0.93 0.91 0.93 0.88 0.78 0.73 0.76 0.80 0.88 1.14 1.23 1.15 1.14 1.30 1.53 1.79 1.96 1.99 1.80 1.73
1.30 1.22 1.13 1.02 0.90 0.79 0.74 0.76 0.56 0.51 0.50 0.50 0.51 0.61 0.61 0.48 0.42 0.39 0.37 0.40 0.43 0.47 0.48 0.49 0.52 0.56 0.62 0.76 0.86 0.87 0.89 0.93 0.89 0.82 0.75 0.72 0.71 0.82 1.08 1.31 1.34 1.30 1.42 1.53 1.55 1.80 1.93 2.02 1.91
1.02 0.90 0.88 0.82 0.72 0.69 0.63 0.56 0.50 0.44 0.43 0.47 0.49 0.54 0.51 0.39 0.33 0.32 0.33 0.37 0.44 0.46 0.47 0.53 0.54 0.54 0.55 0.60 0.70 0.78 0.78 0.80 0.85 0.80 0.79 0.84 0.91 0.99 1.23 1.49 1.52 1.57 1.60 1.69 1.89 2.16 2.20 2.11 2.08
0.78 0.74 0.71 0.60 0.49 0.54 0.56 0.56 0.50 0.47 0.43 0.43 0.45 0.44 0.46 0.40 0.36 0.28 0.26 0.28 0.36 0.41 0.43 0.49 0.56 0.55 0.51 0.48 0.56 0.64 0.66 0.76 0.87 0.94 1.01 1.02 1.05 1.15 1.39 1.60 1.83 1.94 1.80 1.83 2.07 2.37 2.52 2.32 2.14
0.78 0.80 0.76 0.68 0.51 0.51 0.55 0.59 0.51 0.46 0.43 0.37 0.33 0.31 0.36 0.35 0.34 0.29 0.28 0.27 0.27 0.31 0.35 0.42 0.45 0.44 0.40 0.38 0.45 0.56 0.64 0.73 0.92 1.10 1.32 1.25 1.17 1.22 1.27 1.55 1.75 1.83 1.90 1.93 2.04 2.34 2.68 2.48 2.19
0.71 0.67 0.61 0.69 0.62 0.59 0.67 0.74 0.61 0.52 0.48 0.39 0.31 0.31 0.33 0.32 0.28 0.28 0.29 0.31 0.26 0.27 0.32 0.38 0.40 0.41 0.40 0.47 0.65 0.94 1.20 1.33 1.39 1.45 1.69 1.72 1.59 1.55 1.53 1.58 1.70 1.76 1.91 2.05 2.09 2.13 2.46 2.56 2.37
0.75 0.55 0.48 0.60 0.76 0.74 0.65 0.79 0.57 0.51 0.56 0.44 0.36 0.32 0.32 0.32 0.30 0.28 0.28 0.32 0.25 0.27 0.33 0.37 0.40 0.47 0.49 0.63 0.96 1.38 1.71 1.83 1.81 1.89 1.98 2.08 2.01 1.85 1.86 1.88 1.95 1.87 1.86 1.96 1.96 1.94 2.19 2.54 2.60
0.73 0.60 0.59 0.65 0.70 0.66 0.46 0.53 0.46 0.46 0.56 0.46 0.42 0.41 0.41 0.35 0.33 0.31 0.32 0.34 0.31 0.34 0.41 0.46 0.52 0.70 0.86 0.97 1.15 1.47 1.64 1.73 1.86 2.02 2.26 2.44 2.49 2.42 2.37 2.30 2.14 1.94 1.89 1.96 2.00 2.01 2.12 2.24 2.41
0.55 0.67 0.79 0.79 0.77 0.74 0.38 0.37 0.43 0.43 0.42 0.41 0.41 0.44 0.43 0.37 0.32 0.32 0.38 0.43 0.43 0.49 0.56 0.60 0.73 0.87 0.95 1.05 1.17 1.29 1.38 1.54 1.75 1.94 2.20 2.37 2.41 2.41 2.34 2.17 1.93 1.77 1.72 1.81 1.96 1.98 2.05 2.05 2.13
0.53 0.76 1.08 1.16 1.07 0.75 0.33 0.32 0.40 0.32 0.28 0.32 0.34 0.32 0.32 0.33 0.34 0.35 0.37 0.44 0.48 0.56 0.62 0.71 0.83 0.95 0.99 1.08 1.18 1.22 1.27 1.41 1.58 1.69 1.77 1.81 1.80 1.82 1.82 1.81 1.78 1.67 1.58 1.68 1.91 2.00 2.04 2.03 2.01
0.44 0.54 0.89 1.08 0.89 0.62 0.36 0.43 0.41 0.27 0.22 0.19 0.23 0.26 0.30 0.38 0.41 0.42 0.41 0.52 0.60 0.68 0.79 0.88 0.95 0.99 1.03 1.13 1.21 1.20 1.29 1.41 1.52 1.50 1.46 1.52 1.55 1.61 1.63 1.69 1.70 1.64 1.60 1.62 1.75 1.88 1.99 1.99 1.92
0.41 0.43 0.50 0.63 0.52 0.53 0.42 0.37 0.29 0.18 0.17 0.17 0.22 0.33 0.41 0.48 0.51 0.53 0.56 0.62 0.71 0.79 0.88 0.96 1.05 1.10 1.14 1.15 1.23 1.38 1.43 1.42 1.41 1.32 1.28 1.34 1.30 1.27 1.37 1.49 1.58 1.53 1.50 1.52 1.64 1.79 1.82 1.90 1.97
0.34 0.43 0.52 0.62 0.69 0.65 0.44 0.39 0.35 0.24 0.23 0.26 0.32 0.41 0.55 0.66 0.68 0.70 0.76 0.80 0.85 0.88 0.97 1.05 1.14 1.25 1.22 1.20 1.29 1.48 1.45 1.22 1.07 0.98 1.03 1.08 1.14 1.18 1.20 1.17 1.18 1.15 1.20 1.22 1.31 1.49 1.60 1.64 1.72
0.35 0.34 0.43 0.53 0.54 0.75 0.86 0.81 0.64 0.60 0.49 0.53 0.57 0.66 0.84 0.89 0.91 0.88 0.93 0.98 0.96 0.98 1.07 1.10 1.16 1.32 1.31 1.19 1.27 1.30 1.12 0.88 0.79 0.80 0.79 0.79 0.81 0.87 0.92 0.85 0.84 0.89 0.93 0.89 0.99 1.10 1.19 1.30 1.40
0.28 0.28 0.31 0.53 0.54 0.59 0.92 0.96 0.81 0.84 0.81 0.91 1.00 1.16 1.12 1.09 1.12 1.03 0.97 0.98 0.90 0.89 0.99 1.07 1.18 1.25 1.16 1.10 1.06 0.90 0.73 0.63 0.60 0.58 0.56 0.54 0.56 0.58 0.63 0.62 0.60 0.66 0.78 0.82 0.89 0.95 0.95 1.04 1.16